Location: Larrial
(48.2758°N, 4.5331°W)
Time: 09:02:18
(UTC+00:00)

Cosmos 1300 - Pass Details

Date: 09 April 2020
Orbit: 511 x 515 km, 82.5° (Epoch: 01 June)

Event Time Altitude Azimuth Distance (km) Brightness Sun altitude
Exits shadow 20:18:36 - 173° (S) 1,998 5.3 -12.9°
Reaches altitude 10° 20:19:15 10° 171° (S) 1,736 5.0 -13.0°
Maximum altitude 20:22:56 51° 95° (E) 656 2.8 -13.6°
Drops below altitude 10° 20:26:40 10° 19° (NNE) 1,753 5.5 -14.1°
Sets 20:28:51 0° 14° (NNE) 2,645 6.5 -14.4°
